Flag for United Arab Emirates Weather past 2 weeks in Ajmān, Ajmān, United Arab Emirates

Now
66 °F

Scattered clouds.


Feels Like: 66 °F
Forecast: 64 / 75 °F
Wind: 5 mph from South

Location: Sharjah International Airport

Current Time: Dec 18, 2014 at 8:34:26 AM

Latest Report: Dec 18, 2014 at 8:00 AM


Visibility: 2 mi

Pressure: 30.12 "Hg

Humidity: 78%

Dew point: 59 °F

Location of AjmānLocation

Historic Weather in Ajmān — Graph

°F

Ajmān temperature yesterday

Maximum temperature yesterday: 79 °F (at 1:00 PM)
Minimum temperature yesterday: 59 °F (at 5:00 AM)
Average temperature yesterday: 70 °F

Past Weeks' High & Low Weather Summary

 TemperatureHumidityPressure
High88 °F (Dec 6, 2:00 PM)94% (Dec 12, 6:00 AM)30.18 "Hg (Dec 12, 6:00 AM)
Low55 °F (Dec 15, 8:00 AM)13% (Dec 6, 2:00 PM)29.98 "Hg (Dec 11, 3:00 PM)
Average71 °F55%30.09 "Hg
* Reported Dec 3 7:00 AM — Dec 18 7:00 AM, Ajmān, Weather by CustomWeather, © 2014

Note: Actual official high and low records may vary slightly from our data, if they occured in-between our weather recording intervals... More about our weather records

Advertising

Ajmān weather history for previous 24 hours

 ConditionsComfort  
Time TempWeatherWind HumidityBarometerVisibility
7:00 AM
Dec 18
63 °FHaze.5 mph83%30.12 "Hg3 mi
6:00 AM63 °FPassing clouds.5 mph83%30.09 "HgN/A
5:00 AM64 °FPassing clouds.2 mph78%30.09 "HgN/A
4:00 AM64 °FClear.5 mph78%30.09 "Hg10 mi
3:00 AM64 °FClear.2 mph78%30.09 "Hg10 mi
2:00 AM64 °FPassing clouds.3 mph78%30.12 "HgN/A
1:00 AM66 °FPassing clouds.5 mph73%30.12 "HgN/A
12:00 AM66 °FPassing clouds.3 mph73%30.12 "HgN/A
11:00 PM
Dec 17
68 °FPassing clouds.5 mph69%30.12 "HgN/A
10:00 PM70 °FPassing clouds.3 mph69%30.12 "HgN/A
9:00 PM72 °FPassing clouds.No wind61%30.12 "HgN/A
8:00 PM73 °FPassing clouds.1 mph57%30.12 "HgN/A
7:00 PM73 °FPassing clouds.5 mph61%30.09 "HgN/A
6:00 PM75 °FPassing clouds.10 mph54%30.09 "HgN/A
5:00 PM77 °FPassing clouds.7 mph54%30.09 "HgN/A
4:00 PM77 °FScattered clouds.9 mph51%30.09 "HgN/A
3:00 PM77 °FPassing clouds.9 mph51%30.09 "HgN/A
2:00 PM79 °FPassing clouds.10 mph45%30.09 "HgN/A
1:00 PM79 °FPassing clouds.12 mph45%30.12 "HgN/A
12:00 PM77 °FSunny.5 mph44%30.15 "Hg10 mi
11:00 AM77 °FSunny.2 mph44%30.18 "Hg10 mi
10:00 AM73 °FSunny.5 mph53%30.18 "Hg10 mi
9:00 AM68 °FSunny.6 mph60%30.18 "Hg10 mi
8:00 AM61 °FPassing clouds.3 mph68%30.15 "HgN/A
Weather by CustomWeather, © 2014

See weather overviewHow to use our weather pages